Location: Natural Bridges National Monument
(37.6093°N, 109.9767°W)
Time: 01:07:33
(UTC-06:00)

Cosmos 1727 Rocket - Visible Passes

Search period start: 30 May 2017 00:00
Search period end: 09 June 2017 00:00
Orbit: 961 x 996 km, 82.9° (Epoch: 29 May)

Date Brightness Start Highest point End Pass type
(mag) Time Alt. Az. Time Alt. Az. Time Alt. Az.
30 May 3.9 00:35:37 79° ENE 00:35:37 79° ENE 00:41:43 10° N visible
30 May 6.0 02:20:20 13° W 02:21:37 14° WNW 02:24:41 10° NW visible
30 May 5.5 23:16:55 20° E 23:16:58 20° E 23:21:14 10° NE visible
31 May 4.3 01:01:38 55° W 01:01:50 55° W 01:07:59 10° N visible
31 May 4.7 23:42:56 37° E 23:42:58 37° E 23:48:37 10° NNE visible
01 Jun 5.2 01:27:38 29° W 01:28:24 29° WNW 01:33:48 10° NNW visible
02 Jun 3.9 00:08:55 71° ESE 00:09:08 72° E 00:15:23 10° N visible
02 Jun 6.0 01:53:38 14° W 01:55:12 16° WNW 01:58:49 10° NNW visible
02 Jun 5.6 22:50:11 17° E 22:50:44 17° E 22:54:37 10° NE visible
03 Jun 4.1 00:34:54 59° WSW 00:35:30 62° W 00:41:43 10° N visible
03 Jun 4.8 23:16:08 33° E 23:16:42 33° E 23:22:13 10° NNE visible
04 Jun 5.1 01:00:51 30° W 01:02:03 33° WNW 01:07:38 10° NNW visible
04 Jun 3.9 23:42:05 59° SE 23:42:50 64° E 23:49:03 10° NNE visible
05 Jun 5.9 01:26:48 15° W 01:28:48 18° WNW 01:32:51 10° NNW visible
05 Jun 5.6 22:23:17 15° E 22:24:30 15° E 22:27:57 10° NE visible
06 Jun 4.1 00:08:00 57° SW 00:09:10 69° W 00:15:27 10° N visible
06 Jun 4.9 22:49:11 28° ESE 22:50:25 30° E 22:55:46 10° NNE visible
07 Jun 5.1 00:33:54 31° WSW 00:35:41 36° WNW 00:41:27 10° N visible
07 Jun 4.1 23:15:04 46° SE 23:16:33 57° E 23:22:41 10° NNE visible
08 Jun 5.9 00:59:47 15° W 01:02:24 20° WNW 01:06:49 10° NNW visible
08 Jun 5.7 21:56:14 12° E 21:58:16 14° E 22:01:11 10° NE visible
08 Jun 4.0 23:40:55 47° SSW 23:42:50 77° W 23:49:10 10° N visible
